Regional Weather Roundup
Issued by NWS

Home | Current Version | Previous Version | Graphics & Text | Print | Product List | Glossary On
Versions: 1 2 3 4 5 6 7 8 9 10 11 12 13 14 15 16 17 18 19 20 21 22 23 24 25 26 27 28 29 30 31 32 33 34 35 36 37 38 39 40 41 42 43 44 45 46 47 48 49 50
000
ASUS45 KBOU 150010
RWRCO

WEATHER ROUNDUP FOR COLORADO
NATIONAL WEATHER SERVICE DENVER/BOULDER CO
500 PM MST THU DEC 14 2017

NOTE: "FAIR" INDICATES FEW OR NO CLOUDS BELOW 12000 FEET WITH NO
SIGNIFICANT WEATHER AND/OR OBSTRUCTIONS TO VISIBILITY.

COZ001>005-013-030-031-150100-
...NORTHWEST COLORADO...

CITY           SKY/WX    TMP DP  RH WIND       PRES   REMARKS
CRAIG          FAIR      20  12  71 S6        30.32S WCI  12
HAYDEN         FAIR      26  17  68 SW3       30.33R
MEEKER         FAIR      28  17  63 N6        30.31S WCI  22
RABBIT EARS PA CLOUDY    14  10  85 W10G21    30.22S FOG     WCI   1
STEAMBOAT SPGS FAIR      25  16  68 CALM      30.30R
WALDEN         FAIR      14   9  79 NE8       30.28R WCI   3
$$

COZ006>008-011-150100-
...WEST CENTRAL VALLEYS...

CITY           SKY/WX    TMP DP  RH WIND       PRES   REMARKS
GRAND JUNCTION FAIR      41  15  35 NE13      30.30R
MONTROSE       FAIR      38  13  35 CALM      30.29S
EAGLE          FAIR      32  11  41 N6        30.32R WCI  26
RIFLE          FAIR      37  13  37 NW13      30.31R
DELTA          FAIR      44  14  29 W10       30.25S
NUCLA          FAIR      45  10  24 NW7       30.27R
$$

COZ017>023-064>068-150100-
...SOUTHWEST COLORADO...

CITY           SKY/WX    TMP DP  RH WIND       PRES   REMARKS
DURANGO        FAIR      39  24  55 SW3       30.15R
CORTEZ         FAIR      44  15  31 N16G25    30.19R
PAGOSA SPRINGS CLOUDY    37  22  54 SW3       30.17R
TELLURIDE      FAIR      31  -8  18 NE9       30.24S WCI  23
WOLF CREEK PAS FAIR      19  -4  35 NW8G21    30.25R WCI   9
$$

COZ009-010-012-014-032>034-037-058>063-150100-
...CENTRAL COLORADO...

CITY           SKY/WX    TMP DP  RH WIND       PRES   REMARKS
ASPEN          FAIR      30  14  51 W9        30.24S WCI  22
BUENA VISTA    FAIR      29   2  32 NW14G21   30.21R WCI  18
COPPER MTN     NOT AVBL
BERTHOUD PASS  CLOUDY     3  -8  60 NW23G35   30.13S WCI -19
COTTONWOOD PAS FAIR      28   3  34 CALM      30.20R
GUNNISON       FAIR      32  10  40 NW8       30.21R WCI  25
KREMMLING      CLOUDY    32  16  51 NW5       30.29R WCI  27
LEADVILLE      FAIR      16   1  51 N15       30.20R WCI   1
MONARCH PASS   FAIR      14   3  62 NW12      30.28R WCI   0
SALIDA         FAIR      35   3  25 N14G23    30.27R WCI  25
SUNLIGHT       FAIR      14   7  73 N5        30.31R WCI   6
WILKERSON PASS FAIR      12   5  73 NW12G18   30.17S WCI  -2
$$

COZ069>075-150100-
...SAN LUIS VALLEY/SANGRE DE CRISTO MOUNTAINS...

CITY           SKY/WX    TMP DP  RH WIND       PRES   REMARKS
ALAMOSA        FAIR      26  20  77 W7        30.17R WCI  18
DEL NORTE      FAIR      29  23  76 NE3       30.19R
LA VETA PASS   FAIR      21  18  86 W7          N/A  WCI  13
SAGUACHE       MOCLDY    32  25  74 CALM      30.19R
$$

COZ035-036-038>040-150100-
...NORTHERN COLORADO FRONT RANGE...

CITY           SKY/WX    TMP DP  RH WIND       PRES   REMARKS
DENVER INTL AP FAIR      30  19  63 NE3       30.22R
DMNS CITY PARK NOT AVBL
AURORA         PTCLDY    25  20  83 S8        30.23S WCI  16
FRONT RANGE AP PTCLDY    32  25  74 S3        30.23S
ERIE MUNI ARPT FAIR      32  22  65 SE6       30.28R WCI  27
BOULDER MUN AP FAIR      34  25  69 SE3       30.21R
CENTENNIAL     FAIR      28  22  78 SE5       30.23R WCI  23
BROOMFIELD     PTCLDY    32  21  64 SE7       30.22S WCI  26
FORT COLLINS   FAIR      32  15  49 N10       30.21S WCI  24
LONGMONT       FAIR      35  24  65 SW3       30.24R
$$

COZ041-046-047-076>085-087-088-150100-
...PIKES PEAK/PALMER DIVIDE AND SOUTHERN FOOTHILLS...

CITY           SKY/WX    TMP DP  RH WIND       PRES   REMARKS
COLO. SPRINGS  FAIR      28  19  69 N12       30.23R WCI  18
A. F. ACADEMY  FAIR      26  19  76 N10       30.21S WCI  16
SCHRIEVER AFB  FAIR      26  21  83 NE6       30.23R WCI  19
CHEYENNE MTN   MOCLDY    27  21  80 N5        30.15R WCI  21
ELLICOTT         N/A    N/A N/A N/A N3        30.21R
FALCON         LGT SNOW  24  22  90 N8        30.21S WCI  16
FORT CARSON    CLOUDY    32  23  69 CALM      30.22S
LIMON          FAIR      24  19  81 NW8       30.21S WCI  15
MONUMENT HILL  MOCLDY    23  19  86 NW3       30.22S
CANON CITY     CLOUDY    34  32  93 NE12      30.23R WCI  25
WALSENBURG     CLOUDY    34  27  75 E3        30.23R
TRINIDAD       CLOUDY    34  23  64 CALM      30.23R
$$

COZ042>045-048>051-090-091-150100-
...NORTHEAST COLORADO...

CITY           SKY/WX    TMP DP  RH WIND       PRES   REMARKS
GREELEY ARPT   FAIR      34  14  43 NW13      30.23R WCI  25
AKRON          CLOUDY    29  21  72 N14       30.21R WCI  18
BURLINGTON     FAIR      32  17  54 N16G26    30.20R WCI  21
WRAY           CLOUDY    32  23  69 N10       30.23R WCI  24
YUMA           CLOUDY    32  18  55 NW14G20   30.21S WCI  22
STERLING       CLOUDY    32  21  64 N10       30.22S WCI  24
HOLYOKE        FAIR      34  23  64 N15       30.21R WCI  24
FORT MORGAN    FAIR      31  17  57 N8        30.24R WCI  23
$$

COZ086-089-092>099-150100-
...SOUTHEAST COLORADO...

CITY           SKY/WX    TMP DP  RH WIND       PRES   REMARKS
PUEBLO         CLOUDY    36  27  69 N8        30.25R
LA JUNTA       CLOUDY    35  23  61 N9        30.26R WCI  28
LAMAR          CLOUDY    36  25  64 N9        30.23R
SPRINGFIELD      N/A     31  31 100 N13       30.23R WCI  21
$$



USA.gov is the U.S. government's official web portal to all federal, state and local government web resources and services.